Location: Amsterdam
(30.7274°N, 84.4357°W)
Time: 23:36:19
(UTC+00:00)

RS-15 - Visible Passes

Search period start: 13 March 2026 00:00
Search period end: 23 March 2026 00:00
Orbit: 1894 x 2151 km, 64.8° (Epoch: 13 March)

Date Brightness Start Highest point End Pass type
(mag) Time Alt. Az. Time Alt. Az. Time Alt. Az.
13 Mar 7.8 01:35:15 10° SSW 01:46:09 83° ESE 01:57:12 10° NNE visible
13 Mar 9.5 03:51:27 10° W 03:59:48 24° NW 04:08:22 10° N visible
13 Mar 10.1 08:33:11 10° N 08:39:08 15° NNE 08:45:10 10° ENE visible
13 Mar 8.8 10:43:11 10° NNW 10:54:39 58° ENE 11:06:32 10° SE visible
14 Mar 7.8 00:59:34 10° S 01:10:14 63° ESE 01:21:00 10° NE visible
14 Mar 9.2 03:13:47 10° WSW 03:23:08 32° NW 03:32:44 10° NNE visible
14 Mar 10.2 07:58:27 10° N 08:01:48 11° NNE 08:05:11 10° NE visible
14 Mar 9.1 10:07:21 10° NNW 10:18:21 45° NE 10:29:41 10° SE visible
15 Mar 8.1 00:24:17 10° S 00:34:25 46° ESE 00:44:37 10° NE visible
15 Mar 8.8 02:36:35 10° WSW 02:46:40 42° NW 02:57:00 10° NNE visible
15 Mar 10.1 05:01:33 10° NNW 05:03:18 10° NNW 05:05:04 10° NNW visible
15 Mar 9.4 09:31:36 10° NNW 09:41:52 35° NE 09:52:27 10° ESE visible
16 Mar 8.4 01:59:46 10° SW 02:10:21 56° WNW 02:21:11 10° NNE visible
16 Mar 10.0 04:20:59 10° WNW 04:25:56 14° NNW 04:30:59 10° N visible
16 Mar 9.7 08:55:57 10° N 09:05:14 27° NE 09:14:45 10° E visible
16 Mar 8.2 11:07:10 10° NNW 11:18:55 83° WSW 11:31:07 10° SSE visible
17 Mar 8.1 01:23:20 10° SW 01:34:11 73° WNW 01:45:15 10° NNE visible
17 Mar 9.8 03:42:00 10° WNW 03:48:49 18° NW 03:55:47 10° N visible
17 Mar 9.9 08:20:24 10° N 08:28:23 20° NE 08:36:32 10° E visible
17 Mar 8.3 10:31:07 10° NNW 10:42:52 78° ENE 10:55:03 10° SSE visible
18 Mar 7.9 00:47:15 10° SSW 00:58:09 86° ESE 01:09:13 10° NNE visible
18 Mar 9.6 03:03:44 10° W 03:11:55 24° NW 03:20:19 10° N visible
18 Mar 10.1 07:45:04 10° N 07:51:19 16° NNE 07:57:41 10° ENE visible
18 Mar 8.6 09:55:10 10° NNW 10:06:43 61° ENE 10:18:39 10° SE visible
19 Mar 7.9 00:11:31 10° SSW 00:22:13 66° ESE 00:33:03 10° NNE visible
19 Mar 9.3 02:26:00 10° WSW 02:35:14 31° NW 02:44:42 10° NNE visible
19 Mar 10.2 07:10:11 10° N 07:14:02 12° NNE 07:17:54 10° NE visible
19 Mar 8.9 09:19:19 10° NNW 09:30:25 47° NE 09:41:52 10° SE visible
20 Mar 9.0 01:48:44 10° WSW 01:58:43 41° NW 02:08:59 10° NNE visible
20 Mar 10.2 04:15:00 10° NNW 04:15:31 10° NNW 04:16:02 10° NNW visible
20 Mar 9.3 08:43:34 10° NNW 08:53:59 36° NE 09:04:41 10° ESE visible
20 Mar 8.2 10:55:25 10° NW 11:06:52 62° WSW 11:18:46 10° S visible
21 Mar 8.6 01:11:53 10° SW 01:22:23 53° WNW 01:33:10 10° NNE visible
21 Mar 10.1 03:33:30 10° NW 03:38:08 13° NNW 03:42:50 10° N visible
21 Mar 9.6 08:07:53 10° N 08:17:22 28° NE 08:27:03 10° E visible
21 Mar 8.1 10:19:11 10° NNW 10:30:56 80° WSW 10:43:07 10° SSE visible
22 Mar 8.3 00:35:23 10° SW 00:46:12 70° WNW 00:57:16 10° NNE visible
22 Mar 10.0 02:54:23 10° WNW 03:00:58 17° NW 03:07:43 10° N visible
22 Mar 9.8 07:32:20 10° N 07:40:33 21° NE 07:48:55 10° E visible
22 Mar 8.2 09:43:08 10° NNW 09:54:54 80° ENE 10:07:07 10° SSE visible
